Helicity
194 132 89 85 79 91 101 107 106 84 43 37 31 44 25 17 -17 -13 3 -61 -8 86 -139 -229 -110 -214 73 374 557 575 323 285 242 347 311 275 237 198 135 119 146 127 119
161 125 94 87 87 84 110 95 103 98 66 45 22 21 35 15 21 -19 -24 -34 -20 67 15 -116 -155 -147 -93 116 385 623 312 330 297 336 366 252 202 186 207 189 121 119 139
133 148 103 88 91 112 102 91 88 90 91 57 44 18 30 36 -2 -25 -44 -30 8 1 68 80 -98 -188 -10 -65 246 395 646 357 317 342 363 257 144 235 187 168 178 140 144
150 151 118 81 102 106 102 81 76 75 80 74 58 71 19 47 41 3 -30 -22 -16 29 43 71 118 -80 -247 -92 -114 185 413 304 451 326 363 200 93 168 200 206 185 179 164
156 113 105 108 87 87 82 76 76 76 73 73 65 81 69 30 62 33 24 -12 -14 28 57 52 123 13 -264 -139 -80 15 146 356 284 429 364 326 211 154 127 191 193 192 174
198 163 165 126 71 93 69 77 74 67 68 69 67 69 75 52 48 61 31 2 -16 0 26 57 64 231 -86 -86 -45 -41 -23 171 154 189 270 377 396 263 226 185 205 220 220
237 197 200 130 111 74 59 68 86 68 62 57 59 65 58 64 46 55 48 46 26 -14 0 59 87 112 186 47 -5 3 -12 70 212 151 134 203 307 269 327 275 171 181 204
257 218 221 200 138 95 71 73 80 77 71 68 63 55 60 64 64 49 58 50 34 25 0 11 51 94 83 145 207 -24 -35 59 96 178 142 118 214 218 376 343 302 220 185
217 215 230 236 204 149 100 86 95 92 81 71 63 62 56 58 59 59 52 53 49 39 26 21 24 44 86 78 155 242 50 76 82 148 230 260 226 230 225 330 384 278 176
180 226 233 258 261 207 162 129 112 106 98 72 66 60 54 46 46 44 48 57 58 61 54 28 33 27 41 64 66 163 313 196 129 103 121 228 270 279 239 256 292 319 241
176 238 303 296 311 298 236 155 122 121 115 97 84 65 61 51 45 42 39 41 58 61 77 55 24 52 30 49 87 98 196 239 254 164 179 150 298 422 307 270 246 268 285
157 259 340 376 366 333 287 202 155 159 139 117 104 79 58 51 45 42 39 31 45 70 66 77 71 29 68 43 65 101 113 216 337 282 151 206 342 421 414 373 244 286 273
252 299 365 399 376 349 314 265 207 170 151 148 126 93 64 47 39 41 37 34 36 63 80 79 77 62 51 64 64 76 98 102 378 482 156 206 299 394 483 499 315 250 297
294 332 371 372 389 376 353 298 237 214 190 160 137 97 76 48 35 35 35 37 40 51 76 85 89 69 54 53 74 94 56 50 168 381 533 247 240 353 522 512 407 362 356
335 352 357 346 376 368 346 336 283 247 209 180 136 93 88 59 38 29 30 40 41 41 55 77 90 79 61 34 66 102 91 72 54 183 364 238 197 254 364 553 385 384 351
327 331 334 354 357 325 345 340 314 260 240 180 116 101 84 65 37 30 38 40 40 34 38 65 81 68 57 86 123 153 89 62 20 61 205 536 225 234 261 286 309 524 453
278 324 328 325 356 328 361 340 324 304 235 163 115 97 81 66 50 46 44 45 45 36 38 51 79 85 56 89 102 157 98 73 36 28 190 282 169 272 216 254 323 443 399
247 302 354 354 393 407 397 393 342 277 208 148 110 91 87 65 70 59 50 57 51 41 36 40 67 82 70 91 120 147 115 57 51 -88 70 203 390 237 194 187 236 357 412
313 382 456 476 455 411 391 377 318 250 185 129 97 78 87 89 103 89 64 62 56 52 36 31 47 69 85 104 132 138 96 57 60 -112 -117 129 277 171 219 186 204 286 394
436 534 545 507 457 417 392 353 277 230 173 124 97 110 110 102 97 91 84 73 56 46 44 31 42 59 72 96 117 142 78 57 29 -38 -144 23 221 378 229 263 236 203 289
478 525 497 447 421 425 400 344 278 208 152 137 134 122 129 120 109 97 82 73 71 53 38 22 31 49 60 56 95 164 111 51 12 -31 -194 -75 120 346 259 222 241 241 262
436 469 447 441 449 423 394 337 264 211 191 173 138 117 125 126 101 101 101 88 68 42 37 15 16 31 44 65 65 139 190 160 36 36 -156 -190 94 368 247 272 213 249 293
449 406 426 416 416 393 368 317 259 246 199 168 138 132 135 121 115 115 108 92 84 57 28 20 13 23 37 35 85 131 184 161 73 -27 42 -83 9 215 192 237 187 233 376
432 407 402 373 356 342 302 240 210 184 177 162 151 158 143 118 116 117 118 108 81 59 46 33 23 18 26 45 52 53 95 119 88 49 -1 -191 -102 -5 254 257 349 300 371
445 414 426 414 421 384 306 245 237 219 195 177 167 165 132 123 126 128 123 112 95 66 60 50 27 8 9 61 85 107 112 80 67 112 6 -232 -287 -60 244 254 344 276 363
419 422 396 365 335 277 227 201 195 190 181 172 171 165 162 166 144 128 122 85 51 49 51 52 37 16 18 71 105 122 173 152 135 36 10 -76 -316 -57 128 329 393 363 362
Wind_Speed
34 37 39 42 45 47 48 52 52 51 48 43 44 54 66 65 64 68 67 63 68 71 72 70 71 66 64 62 62 63 63 59 52 45 43 45 46 49 42 36 33 34 35
32 32 37 41 44 46 51 51 52 51 47 44 38 37 63 63 67 65 64 66 67 71 73 77 76 73 66 63 60 55 73 64 61 59 50 57 57 57 54 47 38 35 33
29 32 34 39 42 47 50 49 49 50 49 48 39 37 48 62 62 66 69 70 72 72 73 75 77 77 77 69 62 61 62 75 68 59 60 60 67 56 59 62 49 40 38
29 32 34 37 41 45 46 48 50 51 52 50 47 40 39 62 66 70 72 73 73 75 73 73 76 76 80 76 72 67 64 77 79 73 66 59 50 57 61 64 63 57 47
24 27 30 35 39 42 46 47 48 50 51 52 50 46 39 42 66 70 74 74 72 72 73 73 72 73 80 80 77 75 73 68 83 84 76 68 63 56 57 61 61 64 60
24 27 29 34 37 41 44 47 48 50 51 53 54 51 47 42 55 69 73 75 74 76 76 76 77 76 75 79 82 77 77 76 84 87 88 80 74 72 64 60 57 63 63
23 26 30 34 33 38 43 46 48 50 52 54 56 56 53 50 48 63 69 77 79 78 80 82 82 81 78 85 88 88 85 86 78 92 90 86 84 74 71 63 58 59 59
25 28 32 34 35 37 42 46 48 50 52 55 58 58 58 55 55 55 68 73 79 81 81 83 83 86 85 87 89 89 92 90 86 86 93 92 90 84 77 72 65 63 59
32 33 35 36 36 37 40 44 47 50 52 55 57 60 60 61 61 63 64 70 76 81 84 85 88 87 89 91 93 92 93 93 92 91 98 96 91 87 85 78 70 68 70
41 39 37 38 37 37 39 42 45 49 51 54 56 60 63 64 66 67 72 73 75 79 86 88 90 90 92 94 96 97 97 100 94 90 82 88 91 93 85 82 75 70 69
42 42 42 40 38 37 39 41 44 46 49 53 57 61 65 68 69 72 72 76 78 79 82 88 90 93 94 95 96 100 101 100 101 96 95 94 83 90 87 86 83 76 66
47 45 43 41 39 40 40 42 42 45 46 49 57 61 64 68 72 74 76 77 80 80 81 85 90 92 95 95 97 101 101 101 100 96 93 86 84 87 89 89 85 86 72
51 46 43 43 41 40 39 41 44 46 45 50 55 61 66 69 73 75 77 78 80 81 83 84 87 91 93 95 98 101 103 104 99 100 99 82 85 93 85 90 86 84 78
53 50 48 46 43 41 42 43 44 43 44 49 54 62 68 72 74 76 77 77 78 82 84 83 86 88 92 93 94 97 101 104 100 98 95 87 83 84 94 89 87 84 74
57 52 50 48 45 44 44 44 44 43 43 49 59 66 70 72 73 75 78 78 79 81 83 85 85 87 89 90 93 96 99 102 108 103 102 99 85 80 78 93 88 82 85
59 55 51 50 48 45 45 44 44 42 43 53 63 66 70 71 73 75 78 79 81 84 85 86 87 88 88 91 95 98 100 101 109 112 105 97 92 86 75 85 93 83 84
59 55 53 50 47 44 42 42 40 39 47 54 60 64 68 69 73 77 78 80 82 85 87 87 88 89 89 90 94 97 101 104 108 113 114 112 101 92 83 78 81 90 81
58 54 50 46 43 40 39 37 36 41 48 55 59 64 63 70 75 78 81 82 84 86 89 88 88 90 88 89 92 96 100 104 105 111 115 114 111 95 89 81 77 81 84
56 51 44 40 38 38 36 35 37 44 50 55 60 62 65 73 76 76 81 84 86 88 91 90 90 90 91 92 95 94 97 103 108 108 112 116 116 105 87 82 77 75 72
45 39 35 36 37 37 36 38 41 47 53 56 61 64 68 70 74 76 80 83 84 88 90 93 90 91 93 92 93 94 95 104 105 108 112 115 119 119 94 87 81 78 71
41 37 39 41 40 37 37 43 48 52 53 56 60 63 65 67 69 70 77 82 86 88 91 93 91 90 89 89 91 92 93 98 104 107 109 107 114 120 109 90 81 77 73
46 44 44 42 38 37 41 47 53 55 56 59 63 66 66 66 65 70 79 83 85 88 92 91 92 87 87 89 88 90 94 98 104 109 106 107 112 112 120 98 90 87 77
49 44 45 44 40 40 44 52 57 58 61 62 66 67 67 67 69 75 79 82 84 87 90 91 92 92 90 88 89 92 94 95 99 100 106 109 118 121 126 115 106 83 76
49 46 46 45 45 42 46 52 56 59 62 66 69 70 70 74 74 73 77 82 85 88 90 94 95 95 93 92 89 88 88 92 98 99 101 104 109 117 117 114 95 90 85
47 43 43 46 48 48 51 55 57 60 67 70 72 73 74 76 77 78 80 81 81 85 92 91 94 97 99 95 95 97 96 95 98 104 104 105 108 112 119 111 90 89 90
41 43 48 52 55 56 59 59 60 64 68 73 74 76 78 80 80 82 87 81 88 92 91 97 99 100 101 101 99 99 101 101 100 104 109 110 112 113 117 116 92 89 89
Wind_Direction
348 351 354 358 1 3 5 4 5 7 9 9 5 349 305 295 281 275 272 273 273 274 272 270 267 275 272 272 266 260 228 233 232 235 241 251 254 253 256 253 255 261 264
345 350 352 355 359 1 1 3 4 6 9 10 9 4 320 300 286 277 277 275 276 272 272 269 271 263 261 267 264 268 240 234 229 234 240 247 253 254 255 258 257 259 260
340 345 349 353 357 357 359 3 5 5 8 8 10 7 353 311 293 282 277 276 273 274 273 273 267 261 260 268 264 268 264 232 232 227 242 248 252 251 255 254 258 259 259
337 340 344 349 354 355 359 1 3 4 5 7 8 9 2 327 302 286 279 278 276 275 274 275 270 267 260 264 262 264 269 250 230 234 244 251 250 254 256 254 254 259 260
331 334 340 346 351 354 355 358 0 2 4 4 6 7 5 355 316 294 282 279 277 277 276 272 272 269 266 265 266 263 262 268 240 234 240 246 250 253 259 257 253 257 259
327 331 337 342 346 351 352 353 356 357 359 0 0 1 3 360 342 308 288 280 279 278 276 277 274 273 268 267 266 268 262 266 249 242 244 242 245 249 255 261 255 256 260
318 324 326 331 340 343 347 348 350 351 353 354 355 355 356 357 353 330 303 286 280 278 275 278 275 273 271 265 263 262 261 258 260 246 247 247 247 250 251 256 259 263 264
310 314 318 321 327 335 340 343 343 344 346 347 348 349 349 350 348 344 320 297 283 279 279 277 277 272 269 267 266 262 257 260 261 253 247 249 250 251 247 251 253 261 265
307 309 311 312 318 327 333 338 338 338 340 340 341 342 343 342 341 337 332 313 294 284 280 280 276 274 271 267 264 261 259 261 260 260 250 249 248 251 250 249 249 255 260
310 309 309 306 310 318 327 333 334 333 333 333 335 335 335 336 333 332 325 320 307 294 284 280 277 276 272 266 263 263 263 260 261 256 254 249 249 248 249 249 249 253 258
304 304 308 307 305 312 319 325 328 328 329 329 329 328 329 329 328 326 323 317 312 303 292 283 279 277 274 270 268 264 264 263 262 259 257 253 251 247 247 248 250 250 254
308 305 304 306 303 304 310 315 322 323 325 325 324 324 324 324 324 323 321 318 312 307 300 290 282 278 275 272 268 265 263 262 261 259 254 255 249 247 245 246 247 250 254
307 305 302 300 299 300 304 308 315 317 320 321 321 320 320 321 320 321 320 318 314 310 303 296 287 281 277 274 268 266 264 261 263 260 258 255 250 246 248 246 245 247 251
304 302 301 298 297 297 301 305 310 313 316 318 317 316 316 316 317 318 318 317 315 310 304 299 293 285 280 276 272 270 266 262 261 263 265 254 250 250 245 244 243 242 247
301 299 297 297 296 295 298 302 306 308 312 314 313 313 314 315 316 316 315 316 315 310 305 300 296 290 283 279 274 270 268 265 258 259 259 255 249 249 251 244 244 244 241
298 297 297 298 295 292 293 298 302 306 310 311 310 312 313 315 315 315 315 315 312 309 304 300 296 290 287 282 277 272 268 265 258 255 258 262 248 248 249 245 243 241 238
301 297 295 294 294 293 293 294 299 306 308 309 311 312 314 316 315 315 315 314 311 308 304 301 298 293 288 285 280 274 268 264 260 255 254 253 253 246 247 249 247 243 240
301 298 297 297 297 297 296 298 301 304 307 310 312 313 316 315 315 315 314 313 311 308 304 301 299 294 292 288 282 277 270 264 262 257 253 254 255 245 246 248 250 247 244
300 298 297 299 300 297 296 296 300 304 307 309 311 314 315 314 315 316 314 312 310 308 303 301 299 296 292 288 283 279 271 265 261 257 255 253 251 247 242 245 249 248 242
308 303 303 304 301 298 297 297 299 303 306 309 311 313 314 315 315 316 314 312 310 307 303 299 299 296 292 290 284 279 271 264 261 257 254 253 249 249 239 242 247 246 240
313 310 306 302 299 297 296 296 299 302 308 310 312 313 315 316 316 317 314 311 309 306 302 298 298 296 293 289 285 280 273 266 260 256 255 254 249 248 236 238 244 241 240
306 304 303 302 301 299 296 295 298 304 309 311 311 312 314 316 317 316 313 310 309 305 301 298 297 297 294 289 285 281 276 268 261 255 255 253 251 250 235 237 241 241 236
302 301 300 299 299 299 299 298 301 306 308 309 310 312 313 315 315 312 312 310 308 304 300 298 296 295 292 289 285 281 276 269 261 258 255 255 248 244 236 234 236 236 233
301 300 300 297 297 299 300 301 304 306 307 307 308 310 311 312 312 311 310 308 305 301 298 295 293 293 290 287 285 281 277 271 265 260 256 252 251 243 240 233 235 234 231
301 301 300 300 303 306 306 308 308 309 306 307 307 308 309 309 310 309 308 307 304 300 296 295 294 290 286 284 281 277 276 271 265 260 254 249 245 245 238 232 229 232 229
302 303 302 302 302 303 304 306 307 307 306 305 306 306 307 308 308 307 306 306 301 297 294 292 290 288 283 281 279 276 273 270 265 257 249 244 242 242 234 226 222 226 225